www.pogodaiklimat.ru
ПОГОДА в Темелине

Архив погоды в Темелине (Чехия)

Время
(UTC), дата
19 16.05
20 16.05
21 16.05
22 16.05
23 16.05
00 17.05
01 17.05
02 17.05
03 17.05
04 17.05
05 17.05
06 17.05
07 17.05
08 17.05
09 17.05
10 17.05
11 17.05
12 17.05
13 17.05
14 17.05
15 17.05
16 17.05
17 17.05
18 17.05
19 17.05
20 17.05
21 17.05
22 17.05
23 17.05
00 18.05
01 18.05
02 18.05
03 18.05
04 18.05
05 18.05
06 18.05
07 18.05
08 18.05
09 18.05
10 18.05
11 18.05
12 18.05
13 18.05
14 18.05
15 18.05
16 18.05
17 18.05
18 18.05
19 18.05
20 18.05
21 18.05
22 18.05
23 18.05
00 19.05
01 19.05
02 19.05
03 19.05
04 19.05
05 19.05
06 19.05
07 19.05
08 19.05
09 19.05
10 19.05
11 19.05
12 19.05
13 19.05
14 19.05
15 19.05
16 19.05
17 19.05
18 19.05
19 19.05
20 19.05
21 19.05
22 19.05
23 19.05
00 20.05
01 20.05
02 20.05
03 20.05
04 20.05
05 20.05
06 20.05
07 20.05
08 20.05
09 20.05
10 20.05
11 20.05
12 20.05
13 20.05
14 20.05
15 20.05
16 20.05
17 20.05
18 20.05
19 20.05
20 20.05
21 20.05
22 20.05
23 20.05
00 21.05
01 21.05
02 21.05
03 21.05
04 21.05
05 21.05
06 21.05
07 21.05
08 21.05
09 21.05
10 21.05
11 21.05
12 21.05
13 21.05
14 21.05
15 21.05
16 21.05
17 21.05
18 21.05
19 21.05
20 21.05
21 21.05
22 21.05
23 21.05
00 22.05
01 22.05
02 22.05
03 22.05
04 22.05
05 22.05
06 22.05
07 22.05
08 22.05
09 22.05
10 22.05
11 22.05
12 22.05
13 22.05
14 22.05
15 22.05
16 22.05
17 22.05
18 22.05
19 22.05
20 22.05
21 22.05
22 22.05
23 22.05
00 23.05
01 23.05
02 23.05
03 23.05
04 23.05
05 23.05
06 23.05
07 23.05
08 23.05
09 23.05
10 23.05
11 23.05
12 23.05
13 23.05
14 23.05
15 23.05
16 23.05
17 23.05
18 23.05
19 23.05
Ветер
(напр.,м/с)
Видим. Явления Облачность Т
(С)
Тd
(С)
f
(%)
Тe
(С)
Тes
(С)
Комфортность P
(гПа)
Po
(гПа)
Тmin
(С)
Tmax
(С)
R
(мм)
R24
(мм)
S
(см)
ЮЗ 3 12 км слаб. дождь 10/0
[Ac As]
+15.7 +13.7 88 +15 +15 1018.1 959.4
З 3 18 км слаб. дождь 10/0
[Ac As]
+15.0 +12.7 86 +14 +14 1018.6 959.7
ЮЗ 3 9000 м слаб. дождь н/о +14.8 +13.6 93 +14 +14 1018.7 959.8 1.7
З 3 27 км в посл. час дождь н/о +15.0 +13.2 89 +14 +14 1018.4 959.5
З 3 16 км н/о +14.9 +13.4 91 +14 +14 1018.6 959.7
ЮЗ 2 8000 м в посл. час дождь н/о +14.5 +13.5 94 +14 +14 1018.6 959.6 4 1.7
ЮЗ 2 13 км н/о +14.7 +13.1 90 +14 +14 1018.0 959.1
ЮЗ 2 5000 м дымка н/о +14.5 +13.5 94 +14 +14 1018.0 959.1
З 4 10 км слаб. ливневой дождь н/о +14.7 +13.4 92 +13 +13 1017.9 959.0 1.6
З 2 29 км в посл. час дождь н/о +14.9 +13.5 91 +15 +15 1018.1 959.2
З 3 18 км в посл. час дождь 9/8 330 м
[Frnb Ac As]
+14.9 +13.4 91 +14 +14 1018.3 959.4
З 4 18 км 9/9 240 м
[Frnb]
+15.3 +14.0 92 +14 +15 1018.5 959.7 +14.1 4 1.6
З 4 12 км слаб. дождь 10/10 210 м
[Frnb]
+15.5 +14.0 91 +14 +14 1018.7 959.9
З 4 18 км в посл. час дождь 10/10 210 м
[Frnb]
+15.7 +13.9 89 +15 +15 1019.0 960.2
З 5 15 км в посл. час дождь 10/10 210 м
[Frnb]
+15.4 +13.8 90 +14 +14 1019.3 960.5 1.6
З 5 20 км в посл. час дождь 10/9 400 м
[Sc Ac As]
+15.8 +13.5 86 +15 +15 1019.5 960.7
З 7-12
{12}
30 км 9/9 480 м
[Cu med, cong]
+17.5 +13.8 79 +17 +17 1019.0 960.6
СЗ 7-12
{13}
40 км {дождь} 9/9 840 м
[Cu med, cong]
+19.5 +12.8 65 +20 +21 1018.4 960.4 0.2 1.6
С 5-11
{11}
40 км 9/8 700 м
[Cu med, cong Ac As Ci fib]
+18.5 +12.9 70 +19 +20 1018.9 960.7
С 7
{12}
45 км в посл. час ливневой дождь 9/8 500 м
[Cb calv Ac As]
+16.1 +12.3 78 +15 +15 1019.3 960.6
СВ 7
{12}
40 км {ливн. дождь} 9/5 720 м
[Cu med, cong Ac cuf Ci sp]
+17.8 +11.8 68 +17 +18 1019.2 960.8 1.6
СВ 8
{11}
40 км 8/5 720 м
[Cu med, cong Ac cuf Ci fib]
+16.7 +11.4 71 +15 +16 1019.6 961.0
СВ 5
{11}
40 км 9/4 800 м
[Sc diur, vesp Ac As Ci fib]
+16.5 +10.8 69 +16 +16 1019.9 961.2
СВ 4
{12}
35 км {ливн. дождь, пыльная буря} 9/3 800 м
[Sc diur, vesp Ac As]
+15.8 +10.3 70 +15 +15 1020.7 961.8 +19.9 0.5 1.6
СВ 1 30 км 9/0
[Ac As Ci fib]
+14.1 +9.9 76 +14 +14 1021.8 962.5
СВ 2 30 км 9/0
[Ac As]
+13.8 +10.0 78 +13 +13 1022.5 963.1
В 1 35 км н/о +13.3 +9.2 76 +14 +14 1022.8 963.3 1.6
В 2 35 км н/о +13.3 +8.5 73 +13 +13 1023.0 963.4
В 2 13 км н/о +13.0 +8.7 75 +12 +12 1023.2 963.6
СВ 3 8000 м дымка н/о +9.9 +9.3 96 +8 +8 1024.2 963.9 1.6
СВ 4 1800 м дымка н/о +9.6 +8.9 95 +7 +7 1024.8 964.4
З 1 1600 м дымка н/о +10.5 +9.8 95 +10 +10 1025.0 964.8
ЮЗ 1 15 км н/о +11.2 +8.2 82 +11 +11 1025.1 965.0 1.6
СВ 2 300 м туман н/о +8.6 +7.6 93 +7 +7 1026.2 965.5
СВ 2 20 км туман на расстоянии 4/0
[Ac trans]
+10.1 +9.3 95 +8 +10 1026.6 966.2
Ю 1 30 км туман на расстоянии 3/0
[Ac lent Ci fib]
+13.1 +9.7 80 +13 +17 1026.3 966.5 +8.1 1.5
Ю 2 35 км туман на расстоянии 3/0
[Ac trans Ci fib]
+14.3 +10.7 79 +14 +20 1026.4 966.9
Ю 3 45 км 3/1 570 м
[Cu med, cong Ci fib]
+15.8 +8.8 63 +15 +23 1026.5 967.2
ЮВ 4 50 км 3/1 1230 м
[Cu med, cong Ci sp]
+17.4 +6.0 47 +17 +25 1026.4 967.4 1.5
В 3 50 км 4/3 1350 м
[Cu med, cong Ci fib]
+17.5 +4.8 43 +18 +27 1026.5 967.5
В 3 50 км 4/3 1350 м
[Cu med, cong Ci fib]
+18.3 +7.1 48 +19 +28 1026.0 967.2
В 3 50 км 4/3 1470 м
[Cu hum Ci fib]
+18.7 +7.2 47 +19 +29 1025.6 966.9 1.5
В 3 50 км 4/3 1500 м
[Cu hum Ci fib]
+19.5 +6.9 44 +20 +28 1025.3 966.8
ЮВ 3 50 км 3/1 1500 м
[Cu hum Ci fib]
+19.6 +6.7 43 +21 +28 комфорт 1025.0 966.5
ЮВ 4 55 км 1/1 1500 м
[Sc diur, vesp Ci fib]
+19.9 +5.9 40 +21 +25 комфорт 1024.6 966.2 1.6
В 4 55 км 1/1 1500 м
[Cu hum Ci fib]
+19.7 +4.6 37 +20 +23 1024.6 966.1
В 4 55 км 1/1 1500 м
[Cu hum Ci fib]
+19.1 +5.6 41 +19 +20 1024.8 966.2
В 3 55 км 3/0
[Ci fib]
+17.4 +5.4 45 +17 +18 1025.1 966.2 +20.4 1.6
ЮВ 2 55 км 1/0
[Ci fib]
+16.0 +4.7 47 +16 +16 1025.6 966.4
ЮВ 3 55 км 1/0
[Ci fib]
+15.1 +4.5 49 +15 +15 1025.9 966.5
Ю 3 35 км н/о +14.0 +2.4 45 +13 +13 1026.3 966.6 1.6
Ю 1 35 км н/о +12.8 +0.5 43 +13 +13 1026.7 966.7
В 2 35 км н/о +11.9 -0.1 44 +11 +11 1026.7 966.5
ЮВ 3 35 км н/о +11.0 -0.7 44 +10 +10 1026.7 966.3 1.6
ЮВ 2 35 км н/о +10.4 -1.3 44 +10 +10 1026.6 966.1
В 3 35 км н/о +7.7 +0.3 59 +5 +5 1026.8 965.7
В 3 35 км н/о +7.8 0.0 58 +5 +5 1026.4 965.4 1.6
СВ 3 35 км н/о +6.2 +1.2 70 +3 +3 1026.7 965.3
СВ 2 60 км 6/0
[Ci fib]
+8.5 +1.9 63 +7 +8 1026.4 965.6
В 3 60 км 5/0
[Ci fib]
+10.9 +1.7 53 +9 +12 1025.8 965.5 +5.8 1.5
В 3 65 км 3/0
[Ci fib]
+13.7 +2.6 47 +13 +18 1025.2 965.5
В 3 65 км 3/0
[Ci fib]
+16.0 +3.8 44 +16 +24 1024.6 965.4
В 2 65 км 3/0
[Ci fib]
+18.4 +5.6 43 +19 +32 опасность
простуды
1023.8 965.1 1.5
В 3 65 км 3/0
[Ci fib]
+19.9 +7.3 44 +21 +34 комфорт 1023.2 964.9
ЮВ 3 65 км 4/0
[Ci fib]
+21.8 +4.4 32 +22 +35 комфорт 1022.3 964.4
В 4 60 км 4/0
[Ci fib]
+23.3 +7.0 35 +24 +34 комфорт 1021.4 963.8 1.5
В 4 60 км 5/0
[Ci fib]
+24.0 +5.8 31 +24 +33 комфорт 1020.7 963.3
В 4 55 км 6/0
[Ci fib]
+24.5 +8.0 35 +25 +31 комфорт 1020.2 962.9
В 4 55 км 6/0
[Ci fib]
+24.7 +9.4 38 +25 +30 комфорт 1019.6 962.4 1.6
В 3 55 км 6/0
[Ci fib]
+24.7 +8.6 36 +25 +28 комфорт 1019.1 962.0
ЮВ 3 55 км 8/0
[Ci fib]
+24.1 +9.3 39 +25 +26 комфорт 1018.9 961.7
В 1 55 км 9/0
[Cs]
+21.8 +8.7 43 +23 +23 комфорт 1019.6 961.9 +25.2 1.6
ЮВ 1 50 км 9/0
[Cs]
+20.6 +7.9 44 +23 +23 комфорт 1020.3 962.3
Ю 1 40 км зарница 9/0
[Cs]
+19.6 +8.0 47 +22 +22 комфорт 1020.6 962.4
З 2 35 км н/о +18.3 +8.2 52 +19 +19 1020.8 962.3 1.7
З 3 35 км н/о +16.4 +8.8 61 +16 +16 1021.4 962.5
З 6 35 км н/о +16.8 +8.9 60 +16 +16 1022.8 963.9
СЗ 9-14
{18}
35 км слаб. дождь н/о +17.4 +12.2 72 +16 +16 1022.9 964.2 0.0 1.7
ЮЗ 3
{15}
35 км слаб. ливневой дождь н/о +15.2 +13.2 88 +14 +14 1021.8 962.8
ЮЗ 6 35 км н/о +14.5 +13.4 93 +13 +13 1022.3 963.1
ЮЗ 3
{15}
16 км в посл. час дождь н/о +14.3 +12.9 91 +13 +13 1022.6 963.3 1.6
ЮЗ 3 35 км н/о +14.5 +13.0 91 +14 +14 1022.6 963.4
ЮЗ 2 50 км 9/0
[Ac cast Ci fib]
+15.2 +13.6 90 +15 +16 1022.9 963.8
Ю 1
{15}
55 км 6/0
[Ac cast Ci fib]
+17.4 +13.5 78 +18 +22 1022.7 964.1 +13.8 0.8 0.8
1 55 км 8/0
[Ac lent Cs]
+20.5 +15.1 71 +24 +31 комфорт 1022.1 964.1
В 2 55 км 9/0
[Ac lent Cs]
+21.4 +14.8 66 +24 +33 комфорт 1021.8 964.0
В 2 60 км 8/1 930 м
[Cu hum Ci fib]
+23.2 +15.3 61 +27 +38 душно 1021.0 963.6 1.6
З 2 60 км 8/1 1300 м
[Cu med, cong Ci fib]
+24.5 +14.9 55 +27 +40 жарко 1020.3 963.2
СВ 2 55 км 8/3 600 м
[Cb calv Ac cuf Cs]
+25.0 +13.9 50 +27 +35 жарко 1019.5 962.5
ЮВ 2 55 км 9/4 700 м
[Cb calv Ac cuf Ci fib]
+25.9 +14.4 49 +28 +34 жарко 1018.6 961.8 1.6
ЮЗ 2 55 км 9/4 900 м
[Cb calv Ac lent Ci sp]
+27.1 +13.8 44 +29 +34 жарко 1017.5 961.0
Ю 2 60 км 8/3 1500 м
[Cu med, cong Ci fib]
+28.0 +13.5 41 +30 +37 жарко 1016.1 959.8
Ю 3 60 км 5/3 1500 м
[Cu med, cong Ci fib]
+28.4 +11.5 35 +29 +33 жарко 1015.0 958.8 1.7
ЮЗ 5 55 км 4/1 1500 м
[Cu hum Ac lent]
+27.9 +13.4 41 +30 +31 жарко 1014.2 958.0
ЮЗ 4 55 км 4/0
[Ci fib]
+26.6 +12.6 42 +28 +29 жарко 1013.6 957.2
ЮЗ 3 55 км 8/0 2000 м
[Ac cast Cs]
+23.8 +13.9 54 +26 +26 жарко 1013.9 957.0 +28.9 1.8
ЮЗ 1 45 км зарница 10/3 1230 м
[Cu med, cong Ac cuf Cs]
+22.9 +13.4 55 +26 +26 жарко 1013.4 956.3
СЗ 6
{23}
18 км гроза, ливневой дождь 10/4 540 м
[Cb cap Ac cuf]
+16.9 +11.0 68 +16 +16 1016.0 957.6
СЗ 1
{23}
35 км в посл. час дождь н/о +16.7 +13.4 81 +18 +18 1014.4 956.1 1.8
З 5 30 км н/о +15.8 +14.0 89 +15 +15 1015.9 957.3
З 4 35 км н/о +19.2 +12.7 66 +20 +20 1014.7 956.9
З 4
{23}
35 км н/о +18.6 +12.4 67 +19 +19 1015.3 957.3 3 1.8
ЮЗ 3 35 км н/о +16.9 +12.8 77 +17 +17 1016.1 957.7
ЮЗ 3 35 км н/о +16.2 +13.3 83 +16 +16 1016.5 958.0 1.8
СЗ 6
{12}
35 км н/о +16.4 +11.8 74 +15 +15 1017.3 958.7 1.7
З 5 35 км н/о +15.7 +11.1 74 +15 +15 1017.9 959.1
З 5 55 км 4/3 720 м
[Cu med, cong Ci fib]
+15.9 +11.7 76 +15 +15 1018.4 959.7
З 7
{13}
60 км 4/4 720 м
[Cu med, cong Ci fib]
+16.3 +10.8 70 +15 +16 1018.8 960.1 +15.4 3 2.8
З 6-12
{16}
60 км 3/3 930 м
[Cu med, cong Ci fib]
+15.9 +8.4 61 +15 +17 1019.3 960.5
З 7
{12}
60 км 3/3 1080 м
[Cu med, cong Ci fib]
+16.2 +7.7 57 +15 +17 1019.4 960.6
З 8
{16}
60 км 3/1 1230 м
[Cu med, cong Ci fib]
+16.5 +6.9 53 +15 +17 1019.5 960.7 1.7
СЗ 7-12
{13}
60 км 3/1 1230 м
[Cu med, cong Ci fib]
+17.7 +7.4 51 +17 +21 1019.3 960.8
СЗ 7
{13}
60 км 3/1 1380 м
[Cu med, cong Ci fib]
+18.7 +6.5 45 +18 +23 1019.1 960.8
З 8
{16}
60 км 3/1 1440 м
[Cu med, cong Ci fib]
+18.8 +6.0 43 +18 +21 1018.8 960.5 1.7
СЗ 8-13
{13}
60 км 4/1 1500 м
[Cu med, cong Ci fib]
+19.5 +5.2 39 +19 +22 1018.3 960.2
СЗ 6-14
{14}
60 км 6/1 1500 м
[Cu med, cong Ci fib]
+20.1 +6.1 40 +21 +24 комфорт 1017.8 959.8
СЗ 8
{14}
65 км 4/1 1500 м
[Cu hum Ci fib]
+19.5 +5.2 39 +19 +20 1017.6 959.5 1.7
СЗ 7
{14}
65 км 4/1 1500 м
[Cu med, cong Ci fib]
+19.2 +5.3 40 +19 +20 1017.4 959.3
СЗ 6-11
{14}
65 км 4/1 1500 м
[Cu hum Ci fib]
+18.3 +5.2 42 +18 +18 1017.6 959.3
СЗ 5
{14}
70 км 4/1 1380 м
[Cu hum Ci fib]
+16.7 +5.0 46 +16 +16 1018.0 959.3 +20.5 1.7
СЗ 4 60 км 1/0
[Ac lent Ci fib]
+15.0 +4.7 50 +14 +14 1018.7 959.7
СЗ 4 50 км 4/0
[Ac trans]
+13.6 +4.2 53 +12 +12 1019.3 959.9
З 4 н/о н/о +13.6 +5.0 56 +12 +12 1019.4 960.0 1.7
З 2 35 км н/о +12.3 +5.8 64 +12 +12 1019.5 959.9
З 2 35 км н/о +12.4 +5.4 62 +12 +12 1019.3 959.7
СЗ 3 35 км н/о +12.6 +5.4 61 +11 +11 1018.8 959.3 1.7
СЗ 2 35 км н/о +12.4 +5.5 63 +12 +12 1018.7 959.2
СЗ 2 35 км н/о +12.1 +5.2 63 +11 +11 1018.5 958.9
СЗ 3 35 км н/о +11.4 +5.6 67 +10 +10 1018.8 959.0 1.7
СЗ 2 35 км н/о +11.7 +5.9 68 +11 +11 1018.5 958.8
СЗ 2 65 км 9/0
[Ac trans]
+13.0 +6.4 64 +12 +13 1018.1 958.7
З 2 55 км 6/0
[Ac trans Cc]
+13.8 +5.7 58 +13 +16 1017.8 958.6 +11.0 1.6
СЗ 2 55 км 4/1 1110 м
[Cu med, cong Ac lent Ci sp]
+14.6 +6.2 57 +14 +20 1017.5 958.5
З 2 55 км 6/6 1140 м
[Cu med, cong Ci fib]
+14.8 +5.0 52 +15 +19 1017.1 958.1
СЗ 4 55 км 4/4 1260 м
[Cu med, cong Ci fib]
+15.7 +5.3 50 +15 +21 1016.1 957.4 1.6
З 3 55 км 6/6 1380 м
[Cu med, cong]
+17.3 +6.2 48 +17 +23 1015.5 957.1
З 3 55 км 4/4 1500 м
[Cu med, cong]
+17.7 +5.0 43 +18 +26 1015.3 957.0
СЗ 4 55 км 4/4 1500 м
[Cu med, cong Ci fib]
+18.2 +4.4 40 +18 +25 1014.5 956.3 1.6
С 5 55 км 6/5 1500 м
[Cu med, cong Ci fib]
+19.0 +5.1 40 +19 +23 1013.8 955.8
С 4 55 км 6/6 1500 м
[Cu med, cong]
+19.6 +5.3 39 +20 +23 1013.1 955.3
СВ 4 55 км 6/5 1500 м
[Cu med, cong Ci fib]
+19.2 +3.4 35 +19 +22 1013.0 955.1 1.7
З 1 55 км 6/1 1500 м
[Cu med, cong Ac lent Ci fib]
+19.6 +2.5 32 +21 +24 комфорт 1012.4 954.6
С 1 55 км 6/1 1500 м
[Cu hum Ac lent Ci fib]
+19.5 +4.4 37 +21 +22 комфорт 1012.3 954.5
СВ 3 50 км 4/0 2000 м
[Ac lent Ci fib]
+17.4 +4.0 41 +17 +18 1012.8 954.6 +20.9 1.7
СВ 1 55 км 4/0
[Ac trans Ci fib]
+16.7 +3.7 42 +18 +18 1013.0 954.6
СВ 2 50 км 1/0
[Ac lent]
+14.6 +4.6 51 +14 +14 1013.7 954.9
СВ 3 35 км н/о +12.1 +4.7 61 +11 +11 1013.8 954.5 1.7
СВ 4 35 км н/о +11.4 +4.6 63 +9 +9 1014.1 954.6
СВ 3 35 км н/о +11.9 +4.4 60 +10 +10 1013.8 954.4
СВ 3 35 км н/о +10.5 +4.5 66 +9 +9 1013.9 954.2 1.7
СВ 3 35 км н/о +9.2 +4.7 73 +7 +7 1013.5 953.6
СВ 3 35 км н/о +10.0 +4.8 70 +8 +8 1013.1 953.4
В 3 35 км н/о +8.3 +4.1 75 +6 +6 1013.0 952.9 1.7
СВ 2 35 км н/о +8.6 +4.8 77 +7 +7 1012.9 952.9
СВ 2 45 км 9/0
[Ac As Cs]
+10.2 +5.8 74 +9 +10 1012.3 952.7
В 3 45 км 9/0
[Ac lent Cs]
+11.9 +6.8 71 +10 +13 1011.6 952.4 +7.3 1.6
В 5 50 км 9/0
[Ac lent Cs]
+13.6 +6.7 63 +12 +15 1010.9 952.1
ЮВ 5 45 км 9/0
[Ac lent Cs]
+16.4 +8.6 60 +16 +20 1010.3 952.1
ЮВ 4 45 км 9/0
[Ac lent Cs]
+16.8 +6.9 52 +16 +24 1010.1 951.9 1.6
ЮВ 3 45 км 9/0
[Ac lent Cs]
+17.5 +7.8 53 +18 +28 1009.7 951.7
В 5 50 км 9/0
[Ac As]
+18.2 +8.7 54 +18 +21 1008.0 950.3
ЮВ 6 50 км 9/0
[Ac As]
+18.9 +8.0 49 +19 +21 1006.6 949.1 1.6
ЮВ 4
{11}
45 км 9/0
[Ac As]
+18.5 +8.5 52 +19 +22 1006.9 949.3
ЮВ 6 50 км 9/0
[Ac trans]
+19.3 +8.6 50 +20 +22 1006.1 948.7
ЮВ 5
{11}
50 км 8/0
[Ac trans Ci fib]
+19.8 +8.5 48 +21 +23 комфорт 1005.5 948.2 1.6
ЮВ 4 45 км 8/0
[Ac trans]
+19.4 +7.8 47 +20 +22 1005.4 948.0
В 4 45 км 9/0
[Ac As Cs]
+18.3 +8.6 53 +18 +19 1005.4 947.8
В 5
{11}
45 км 10/0
[Ac As Cs]
+17.4 +8.5 56 +17 +17 1004.5 946.8 +20.4 1.6
В 5 45 км 10/0
[Ac As Cs]
+17.0 +8.7 58 +16 +16 1004.8 947.0
Местоположение метеостанции Темелин (Чехия): широта 49.20 долгота 14.33 высота над уровнем моря 507 м.
В архиве по умолчанию представлена погода в Темелине за последнюю неделю. Архивные данные за месяц целиком и за предыдущие месяцы, начиная с января 2011 года, Вы можете получить, выбрав интересующий диапазон дат из раскрывающегося списка и нажав кнопку "Найти!".
*Определитесь, кто Вы:
Внимание! Время в таблицах - всемирное. Для получения местного времени необходимо прибавить поправку, которая равна 1 ч.
Смотрите также архив погоды в соседних городах и на ближайших метеорологических станциях:
Партнеры нашего сайта:      
Пояснения к столбцам:
  • Ветер - указаны скорость ветра в м/с - средняя за 10 мин, порывы в срок и между сроками (в фигурных скобках) и направление, откуда дует ветер: С - северный,
  • СВ - северо-восточный, В - восточный, ЮВ - юго-восточный, Ю - южный, ЮЗ - юго-западный, З - западный, СЗ - северо-западный.
  • Видимость - горизонтальная дальность видимости в метрах или километрах. При видимости от 1 до 10 км при отсутствии осадков обычно наблюдается дымка, при ухудшении видимости до 1 км и менее - туман. В сухую погоду видимость может ухудшаться дымом, пылью или мглою.
  • Явления - указаны атмосферные явления, наблюдавшиеся в срок или в последний час перед сроком; фигурными скобками обозначены явления, наблюдавшиеся между сроками (за 1-3 часа до срока); квадратными скобками обозначены град или гололедные отложения с указанием их диаметра в мм.
  • Облачность - указаны через наклонную черту общая и нижняя облачность в баллах и высота нижней границы облаков в метрах; квадратными скобками обозначены формы облаков: Ci - перистые, Cs - перисто-слоистые, Cc - перисто-кучевые, Ac - высококучевые, As - высокослоистые, Sc - слоисто-кучевые, Ns - слоисто-дождевые, Cu - кучевые, Cb - кучево-дождевые. Подробнее классификацию облаков см. в Атласе облаков (PDF).
  • T - Температура воздуха - температура, измеренная на высоте 2 м над землей.
  • Td - Температура точки росы - температура, при понижении до которой содержащийся в воздухе водяной пар достигнет насыщения.
  • f - Относительная влажность воздуха - влажноcть воздуха, измеренная на высоте 2 м над землей.
  • Te - Эффективная температура - температура, которую ощущает одетый по сезону человек в тени. Характеристика душности погоды. При расчете учитывается влияние влажности воздуха и скорости ветра на теплоощущения человека.
  • Tes - Эффективная температура на солнце - температура, которую ощущает человек, с поправкой на солнечный нагрев. Характеристика знойности погоды. Зависит от высоты солнца над горизонтом, облачности и скорости ветра. Ночью, в пасмурную погоду, а также при ветре 12 м/с и более поправка равна нулю.
  • P - Атмосферное давление - приведенное к уровню моря атмосферное давление.
  • Po - Атмосферное давление - измеренное на уровне метеостанции атмосферное давление.
  • Tmin - Минимальная температура - минимум температуры воздуха на высоте 2 м над землей.
  • Tmax - Максимальная температура - максимум температуры воздуха на высоте 2 м над землей.
  • R - Количество осадков - Количество выпавших осадков за период времени, мм. При наведении курсора мыши на число - период времени, за который выпало указанное количество осадков.
  • R24 - Количество осадков - Количество выпавших осадков за 24 часа, мм.
  • S - Снежный покров - Высота снежного покрова, см. При наведении курсора мыши на число - состояние снежного покрова и степень покрытия местности в баллах.